Grand Forks AFB, ND

8:43 PM CDT on April 30, 2017 (GMT -0500)
Grand Forks Air Force Base

Weather History for KRDR - January, 2014

Change the Weather History Date:

Monday, January 20, 2014

  Actual Average Record
Temperature  
Mean Temperature -6 °F -  
Max Temperature 6 °F 13 °F 35 °F (2017)
Min Temperature -20 °F 0 °F -27 °F (2011)
Degree Days  
Heating Degree Days 71    
Moisture  
Dew Point -9 °F    
Average Humidity 77    
Maximum Humidity 85    
Minimum Humidity 63    
Precipitation  
Precipitation 0.00 in - - ()
Sea Level Pressure  
Sea Level Pressure 30.18 in    
Wind  
Wind Speed 18 mph (NNE)    
Max Wind Speed 26 mph    
Max Gust Speed 33 mph    
Visibility 5 miles    
Events Snow    
Averages and records for this station are not official NWS values.
T = Trace of Precipitation, MM = Missing Value Source: NWS Daily Summary

Daily Weather History Graph

Daily Weather History Graph

Search for Another Location

Airport or City:

Trip Planner

Search our weather history database for the weather conditions in past years. The results will help you decide how hot, cold, wet, or windy it might be!

Date:

Astronomy

Jan. 20, 2014 Rise Set
Actual Time 8:10 AM CST 5:11 PM CST
Civil Twilight 7:35 AM CST 5:45 PM CST
Nautical Twilight 6:57 AM CST 6:24 PM CST
Astronomical Twilight 6:20 AM CST 7:01 PM CST
Moon 10:11 PM CST (1/20) 9:48 AM CST (1/20)
Length of Visible Light 10h 10m
Length of Day
9h 01m
Waning Gibbous, 82% of the Moon is Illuminated
Jan 20
Waning Gibbous
Jan 23
Last Quarter
Jan 30
New
Feb 6
First Quarter
Feb 14
Full

Hourly Weather History & Observations

Time (CST) Temp. Windchill Dew Point Humidity Pressure Visibility Wind Dir Wind Speed Gust Speed Precip Events Conditions
12:08 AM 6.8 °F -11.3 °F 3.2 °F 85% 29.85 in 10.0 mi North 16.1 mph - N/A Snow Light Snow
12:18 AM 6.8 °F -11.8 °F 1.4 °F 79% 29.85 in 10.0 mi North 17.3 mph - N/A Snow Light Snow
12:19 AM 6.8 °F -11.8 °F 1.4 °F 79% 29.85 in 10.0 mi North 17.3 mph - N/A   Overcast
12:21 AM 6.8 °F -11.8 °F 1.4 °F 79% 29.85 in 10.0 mi North 17.3 mph - N/A Snow Light Snow
12:31 AM 6.8 °F -10.0 °F 1.4 °F 79% 29.85 in 10.0 mi North 13.8 mph - N/A Snow Light Snow
12:46 AM 5.0 °F -14.7 °F 1.4 °F 85% 29.86 in 10.0 mi NNE 18.4 mph - N/A   Overcast
12:51 AM 5.0 °F -13.0 °F 1.4 °F 85% 29.86 in 10.0 mi NNE 15.0 mph - N/A   Overcast
12:58 AM 5.5 °F -12.9 °F 0.9 °F 81% 29.92 in 10.0 mi NNE 16.1 mph - 0.00 in   Overcast
1:45 AM 5.0 °F -13.6 °F -0.4 °F 78% 29.88 in 10.0 mi NNE 16.1 mph - N/A Snow Light Snow
1:58 AM 3.6 °F -16.0 °F -1.3 °F 80% 29.96 in 10.0 mi NNE 17.3 mph - 0.00 in Snow Light Snow
2:11 AM 3.2 °F -15.9 °F -2.2 °F 78% 29.89 in 10.0 mi NNE 16.1 mph - N/A   Overcast
2:14 AM 3.2 °F -15.3 °F -2.2 °F 78% 29.89 in 10.0 mi NNE 15.0 mph - N/A Snow Light Snow
2:15 AM 3.2 °F -15.9 °F -2.2 °F 78% 29.89 in 10.0 mi NNE 16.1 mph - N/A   Overcast
2:22 AM 3.2 °F -15.3 °F -2.2 °F 78% 29.90 in 10.0 mi NNE 15.0 mph - N/A Snow Light Snow
2:46 AM 3.2 °F -15.9 °F -2.2 °F 78% 29.91 in 10.0 mi North 16.1 mph - N/A   Overcast
2:49 AM 3.2 °F -16.5 °F -2.2 °F 78% 29.91 in 10.0 mi NNE 17.3 mph - N/A Snow Light Snow
2:53 AM 3.2 °F -14.6 °F -2.2 °F 78% 29.92 in 10.0 mi NNE 13.8 mph - N/A   Overcast
2:58 AM 2.8 °F -16.4 °F -2.2 °F 79% 30.01 in 10.0 mi North 16.1 mph - 0.00 in   Overcast
2:59 AM 3.2 °F -15.9 °F -2.2 °F 78% 29.93 in 10.0 mi North 16.1 mph - N/A Snow Light Snow
3:04 AM 3.2 °F -15.9 °F -2.2 °F 78% 29.92 in 7.0 mi NNE 16.1 mph - N/A Snow Light Snow
3:13 AM 3.2 °F -17.1 °F -2.2 °F 78% 29.92 in 10.0 mi NNE 18.4 mph - N/A   Overcast
3:17 AM 3.2 °F -17.1 °F -2.2 °F 78% 29.93 in 10.0 mi NNE 18.4 mph - N/A Snow Light Snow
3:26 AM 3.2 °F -15.9 °F -2.2 °F 78% 29.93 in 10.0 mi NNE 16.1 mph - N/A   Overcast
3:30 AM 3.2 °F -16.5 °F -2.2 °F 78% 29.94 in 10.0 mi NNE 17.3 mph - N/A Snow Light Snow
3:40 AM 3.2 °F -15.9 °F -2.2 °F 78% 29.94 in 7.0 mi NNE 16.1 mph - N/A Snow Light Snow
3:45 AM 1.4 °F -19.4 °F -2.2 °F 85% 29.95 in 5.0 mi NNE 18.4 mph - N/A Snow Light Snow
3:47 AM 1.4 °F -18.8 °F -2.2 °F 85% 29.95 in 5.0 mi NNE 17.3 mph - N/A Snow Light Snow
3:52 AM 1.4 °F -18.2 °F -2.2 °F 85% 29.95 in 7.0 mi NNE 16.1 mph - N/A Snow Light Snow
3:57 AM 1.4 °F -18.8 °F -2.2 °F 85% 29.95 in 9.0 mi NNE 17.3 mph - N/A Snow Light Snow
3:58 AM 2.1 °F -17.3 °F -2.7 °F 80% 30.03 in 9.0 mi NNE 16.1 mph - 0.00 in Snow Light Snow
4:08 AM 1.4 °F -18.8 °F -2.2 °F 85% 29.96 in 9.0 mi NNE 17.3 mph - N/A Snow Light Snow
4:13 AM 1.4 °F -18.8 °F -2.2 °F 85% 29.96 in 8.0 mi NNE 17.3 mph - N/A Snow Light Snow
4:14 AM 1.4 °F -19.4 °F -2.2 °F 85% 29.96 in 8.0 mi NNE 18.4 mph - N/A   Overcast
4:22 AM 1.4 °F -19.4 °F -4.0 °F 78% 29.97 in 6.0 mi NNE 18.4 mph - N/A Snow Light Snow
4:27 AM 1.4 °F -20.5 °F -4.0 °F 78% 29.98 in 5.0 mi NNE 20.7 mph - N/A Snow Light Snow
4:32 AM 1.4 °F -19.4 °F -4.0 °F 78% 29.98 in 4.0 mi NNE 18.4 mph - N/A Snow Light Snow
4:42 AM 1.4 °F -20.5 °F -4.0 °F 78% 29.99 in 4.0 mi NNE 20.7 mph - N/A Snow Light Snow
4:58 AM 1.0 °F -20.4 °F -3.8 °F 80% 30.07 in 4.0 mi NNE 19.6 mph - 0.00 in Snow Light Snow
5:03 AM 1.4 °F -21.0 °F -4.0 °F 78% 30.00 in 3.0 mi NNE 21.9 mph - N/A Snow Light Snow
5:13 AM 1.4 °F -20.5 °F -4.0 °F 78% 30.00 in 2.5 mi NNE 20.7 mph - N/A Snow Light Snow
5:28 AM -0.4 °F -22.3 °F -4.0 °F 85% 30.01 in 2.0 mi NNE 19.6 mph - N/A Snow Light Snow
5:38 AM -0.4 °F -23.3 °F -4.0 °F 85% 30.02 in 2.0 mi NNE 21.9 mph - N/A Snow Light Snow
5:43 AM -0.4 °F -22.3 °F -4.0 °F 85% 30.03 in 2.5 mi NNE 19.6 mph - N/A Snow Light Snow
5:44 AM -0.4 °F -22.3 °F -4.0 °F 85% 30.03 in 2.5 mi NNE 19.6 mph - N/A Snow Light Snow
5:49 AM -0.4 °F -22.8 °F -4.0 °F 85% 30.03 in 3.0 mi NNE 20.7 mph - N/A Snow Light Snow
5:54 AM -0.4 °F -22.8 °F -4.0 °F 85% 30.03 in 3.0 mi NNE 20.7 mph - N/A Snow Light Snow
5:58 AM 0.3 °F -20.8 °F -4.5 °F 80% 30.11 in 3.0 mi NNE 18.4 mph - 0.00 in Snow Light Snow
6:03 AM -0.4 °F -23.8 °F -4.0 °F 85% 30.04 in 3.0 mi NNE 23.0 mph - N/A Snow Light Snow
6:08 AM -0.4 °F -22.8 °F -4.0 °F 85% 30.04 in 2.5 mi NNE 20.7 mph - N/A Snow Blowing Snow
6:13 AM -0.4 °F -22.8 °F -4.0 °F 85% 30.04 in 3.0 mi NNE 20.7 mph - N/A Snow Blowing Snow
6:18 AM -0.4 °F -22.3 °F -4.0 °F 85% 30.05 in 4.0 mi NNE 19.6 mph - N/A Snow Blowing Snow
6:28 AM -0.4 °F -22.8 °F -5.8 °F 78% 30.06 in 4.0 mi NNE 20.7 mph - N/A Snow Blowing Snow
6:38 AM -0.4 °F -23.3 °F -5.8 °F 78% 30.07 in 3.0 mi NNE 21.9 mph - N/A Snow Blowing Snow
6:43 AM -0.4 °F -22.8 °F -5.8 °F 78% 30.08 in 2.0 mi NNE 20.7 mph - N/A Snow Blowing Snow
6:48 AM -0.4 °F -22.8 °F -5.8 °F 78% 30.09 in 1.5 mi NNE 20.7 mph - N/A Snow Light Snow
6:53 AM -0.4 °F -23.3 °F -5.8 °F 78% 30.09 in 1.2 mi NNE 21.9 mph - N/A Snow Light Snow
6:58 AM -0.9 °F -24.1 °F -5.6 °F 81% 30.19 in 1.2 mi NNE 21.9 mph - 0.00 in Snow Light Snow
7:08 AM -0.4 °F -22.3 °F -5.8 °F 78% 30.10 in 1.5 mi NNE 19.6 mph - N/A Snow Light Snow
7:18 AM -2.2 °F -24.7 °F -5.8 °F 85% 30.11 in 2.0 mi NNE 19.6 mph - N/A Snow Light Snow
7:25 AM -2.2 °F -25.2 °F -5.8 °F 85% 30.11 in 2.0 mi NNE 20.7 mph - N/A Snow Light Snow
7:40 AM -2.2 °F -25.7 °F -5.8 °F 85% 30.13 in 2.0 mi NNE 21.9 mph - N/A Snow Light Snow
7:45 AM -2.2 °F -25.2 °F -5.8 °F 85% 30.13 in 2.0 mi NNE 20.7 mph - N/A Snow Light Snow
7:50 AM -2.2 °F -25.2 °F -7.6 °F 78% 30.14 in 2.0 mi NNE 20.7 mph - N/A Snow Light Snow
7:58 AM -2.2 °F -25.2 °F -7.1 °F 80% 30.23 in 2.0 mi NNE 20.7 mph - 0.00 in Snow Light Snow
8:33 AM -4.0 °F -27.6 °F -7.6 °F 85% 30.17 in 1.8 mi NNE 20.7 mph - N/A Snow Blowing Snow
8:38 AM -4.0 °F -27.0 °F -7.6 °F 85% 30.18 in 2.0 mi NNE 19.6 mph - N/A Snow Blowing Snow
8:43 AM -4.0 °F -27.6 °F -7.6 °F 85% 30.18 in 1.8 mi NNE 20.7 mph - N/A Snow Blowing Snow
8:48 AM -4.0 °F -27.0 °F -9.4 °F 78% 30.19 in 1.5 mi NNE 19.6 mph - N/A Snow Blowing Snow
8:58 AM -3.3 °F -27.1 °F -8.3 °F 79% 30.29 in 1.2 mi NNE 21.9 mph - 0.00 in Snow Blowing Snow
9:13 AM -4.0 °F -27.6 °F -9.4 °F 78% 30.22 in 1.2 mi NNE 20.7 mph 25.3 mph N/A Snow Blowing Snow
9:18 AM -4.0 °F -27.0 °F -9.4 °F 78% 30.23 in 1.2 mi NNE 19.6 mph - N/A Snow Blowing Snow
9:23 AM -4.0 °F -28.6 °F -9.4 °F 78% 30.23 in 1.0 mi NNE 23.0 mph 27.6 mph N/A Snow Blowing Snow
9:33 AM -4.0 °F -28.1 °F -9.4 °F 78% 30.25 in 1.2 mi NNE 21.9 mph - N/A Snow Blowing Snow
9:43 AM -4.0 °F -29.1 °F -9.4 °F 78% 30.26 in 1.5 mi NNE 24.2 mph 29.9 mph N/A   Light Freezing Rain
9:48 AM -4.0 °F -27.0 °F -9.4 °F 78% 30.27 in 1.2 mi NNE 19.6 mph 29.9 mph N/A   Light Freezing Rain
9:53 AM -4.0 °F -28.1 °F -9.4 °F 78% 30.28 in 1.0 mi NNE 21.9 mph 29.9 mph N/A   Light Freezing Rain
9:58 AM -4.5 °F -30.3 °F -9.8 °F 78% 30.37 in 1.0 mi NNE 25.3 mph - 0.00 in   Light Freezing Rain
10:03 AM -4.0 °F -28.6 °F -11.2 °F 71% 30.28 in 0.8 mi NNE 23.0 mph 32.2 mph N/A   Light Freezing Rain
10:08 AM -5.8 °F -29.9 °F -11.2 °F 77% 30.28 in 1.0 mi NNE 20.7 mph 32.2 mph N/A   Light Freezing Rain
10:13 AM -5.8 °F -32.4 °F -11.2 °F 77% 30.29 in 1.2 mi NNE 26.5 mph 33.4 mph N/A   Light Freezing Rain
10:18 AM -5.8 °F -31.0 °F -11.2 °F 77% 30.30 in 0.8 mi NNE 23.0 mph 33.4 mph N/A   Light Freezing Rain
10:23 AM -5.8 °F -32.0 °F -11.2 °F 77% 30.30 in 0.5 mi NNE 25.3 mph 33.4 mph N/A   Light Freezing Rain
10:28 AM -5.8 °F -30.5 °F -11.2 °F 77% 30.31 in 0.8 mi NNE 21.9 mph 29.9 mph N/A   Light Freezing Rain
10:33 AM -5.8 °F -32.0 °F -11.2 °F 77% 30.32 in 1.0 mi NNE 25.3 mph 29.9 mph N/A   Light Freezing Rain
10:38 AM -5.8 °F -31.0 °F -11.2 °F 77% 30.32 in 1.0 mi NNE 23.0 mph 31.1 mph N/A   Light Freezing Rain
10:43 AM -5.8 °F -31.5 °F -11.2 °F 77% 30.32 in 1.2 mi NNE 24.2 mph 31.1 mph N/A   Light Freezing Rain
10:48 AM -5.8 °F -29.9 °F -13.0 °F 71% 30.32 in 1.8 mi NNE 20.7 mph 29.9 mph N/A   Light Freezing Rain
10:53 AM -5.8 °F -30.5 °F -11.2 °F 77% 30.33 in 2.0 mi North 21.9 mph 29.9 mph N/A   Light Freezing Rain
10:58 AM -6.2 °F -29.8 °F -12.3 °F 75% 30.44 in 2.0 mi NNE 19.6 mph - 0.00 in   Light Freezing Rain
11:08 AM -7.6 °F -33.4 °F -13.0 °F 77% 30.35 in 3.0 mi North 23.0 mph - N/A   Light Freezing Rain
11:13 AM -7.6 °F -33.9 °F -13.0 °F 77% 30.35 in 1.8 mi North 24.2 mph 32.2 mph N/A   Light Freezing Rain
11:18 AM -7.6 °F -33.9 °F -13.0 °F 77% 30.36 in 1.2 mi North 24.2 mph 32.2 mph N/A   Light Freezing Rain
11:28 AM -7.6 °F -32.9 °F -14.8 °F 71% 30.38 in 1.0 mi North 21.9 mph 31.1 mph N/A   Light Freezing Rain
11:33 AM -7.6 °F -34.4 °F -14.8 °F 71% 30.38 in 1.2 mi North 25.3 mph 31.1 mph N/A   Light Freezing Rain
11:38 AM -7.6 °F -34.8 °F -14.8 °F 71% 30.39 in 1.5 mi North 26.5 mph 29.9 mph N/A   Light Freezing Rain
11:43 AM -7.6 °F -32.3 °F -14.8 °F 71% 30.39 in 2.0 mi North 20.7 mph 29.9 mph N/A   Light Freezing Rain
11:48 AM -7.6 °F -33.4 °F -14.8 °F 71% 30.39 in 3.0 mi NNE 23.0 mph 27.6 mph N/A   Light Freezing Rain
11:53 AM -7.6 °F -32.9 °F -14.8 °F 71% 30.39 in 4.0 mi North 21.9 mph 27.6 mph N/A   Light Freezing Rain
11:58 AM -7.6 °F -31.7 °F -16.6 °F 65% 30.49 in 6.0 mi North 19.6 mph 27.6 mph 0.00 in   Light Freezing Rain
11:59 AM -7.6 °F -31.7 °F -16.6 °F 65% 30.39 in 8.0 mi North 19.6 mph 27.6 mph N/A   Mostly Cloudy
12:03 PM -7.6 °F -33.4 °F -16.6 °F 65% 30.39 in 7.0 mi North 23.0 mph 27.6 mph N/A   Light Freezing Rain
12:13 PM -9.4 °F -37.3 °F -16.6 °F 71% 30.39 in 3.0 mi NNE 26.5 mph 32.2 mph N/A   Light Freezing Rain
12:18 PM -9.4 °F -35.2 °F -18.4 °F 65% 30.41 in 2.5 mi North 21.9 mph 32.2 mph N/A   Light Freezing Rain
12:33 PM -9.4 °F -35.2 °F -18.4 °F 65% 30.41 in 3.0 mi NNE 21.9 mph 29.9 mph N/A   Light Freezing Rain
12:55 PM -9.4 °F -35.8 °F -18.4 °F 65% 30.43 in 5.0 mi North 23.0 mph 27.6 mph N/A   Light Freezing Rain
12:58 PM -9.0 °F -33.6 °F -17.5 °F 66% 30.53 in 5.0 mi North 19.6 mph 27.6 mph 0.00 in   Light Freezing Rain
1:27 PM -11.2 °F -36.4 °F -18.4 °F 70% 30.44 in 9.0 mi North 19.6 mph - N/A   Partly Cloudy
1:32 PM -9.4 °F -35.2 °F -18.4 °F 65% 30.45 in 8.0 mi North 21.9 mph 26.5 mph N/A   Light Freezing Rain
1:58 PM -9.9 °F -36.5 °F -18.6 °F 66% 30.56 in 8.0 mi North 23.0 mph - 0.00 in   Light Freezing Rain
2:10 PM -11.2 °F -37.0 °F -20.2 °F 64% 30.47 in 8.0 mi North 20.7 mph - N/A   Clear
2:58 PM -10.1 °F -31.5 °F -19.7 °F 63% 30.58 in 10.0 mi North 13.8 mph - 0.00 in   Clear
3:58 PM -10.8 °F -31.6 °F -20.0 °F 64% 30.61 in 10.0 mi North 12.7 mph - N/A   Clear
4:58 PM -13.5 °F -29.3 °F -22.0 °F 66% 30.65 in 10.0 mi North 6.9 mph - N/A   Clear
5:58 PM -15.7 °F -28.2 °F -23.8 °F 67% 30.68 in 10.0 mi NNW 4.6 mph - N/A   Clear
6:58 PM -14.1 °F -32.6 °F -22.4 °F 66% 30.68 in 10.0 mi NNW 9.2 mph - N/A   Clear
7:58 PM -13.5 °F -29.3 °F -22.2 °F 65% 30.68 in 10.0 mi NW 6.9 mph - 0.00 in   Clear
8:58 PM -15.7 °F -30.2 °F -23.6 °F 67% 30.68 in 10.0 mi NNW 5.8 mph - 0.00 in Snow Light Snow
9:00 PM -14.8 °F -27.2 °F -23.8 °F 64% 30.56 in 10.0 mi NNW 4.6 mph - N/A   Clear
9:58 PM -18.9 °F -34.0 °F -26.0 °F 70% 30.67 in 10.0 mi WNW 5.8 mph - 0.00 in   Clear
10:58 PM -17.7 °F -28.0 °F -25.4 °F 68% 30.66 in 10.0 mi WNW 3.5 mph - 0.00 in   Clear
11:58 PM -20.6 °F -37.7 °F -27.9 °F 69% 30.63 in 10.0 mi WSW 6.9 mph - 0.00 in Snow Light Snow